Location: Unspecified
(33.2407°S, 0.0000°E)
Time: 17:58:28
(UTC+00:00)

Envisat - Pass Details

Date: 21 May 2019
Orbit: 764 x 766 km, 98.1° (Epoch: 16 June)

Event Time Altitude Azimuth Distance (km) Brightness Sun altitude
Rises 05:37:23 0° 45° (NE) 3,223 7.3 -14.7°
Reaches altitude 10° 05:40:02 10° 58° (ENE) 2,306 6.7 -14.2°
Maximum altitude 05:44:06 25° 111° (ESE) 1,532 5.2 -13.4°
Drops below altitude 10° 05:48:13 10° 164° (SSE) 2,330 5.5 -12.6°
Sets 05:50:53 0° 177° (S) 3,264 6.1 -12.0°
